Regional Weather Roundup
Issued by NWS

Home | Current Version | Previous Version | Graphics & Text | Print | Product List | Glossary On
Versions: 1 2 3 4 5 6 7 8 9 10 11 12 13 14 15 16 17 18 19 20 21 22 23 24 25 26 27 28 29 30 31 32 33 34 35 36 37 38 39 40 41 42 43 44 45 46 47 48 49 50
000
ASUS43 KIND 161459
RWRIN

WEATHER ROUNDUP FOR INDIANA
NATIONAL WEATHER SERVICE INDIANAPOLIS IN
1100 AM EDT WED APR 16 2014

NOTE: "FAIR" INDICATES FEW OR NO CLOUDS BELOW 12,000 FEET WITH NO
SIGNIFICANT WEATHER AND/OR OBSTRUCTIONS TO VISIBILITY.

* - STATION DOES NOT REPORT WEATHER SUCH AS PRECIPITATION OR FOG.

+ - STATION NOT QUALITY CONTROLLED BY THE NATIONAL WEATHER SERVICE.
    USE DATA WITH CAUTION...ESPECIALLY DEWPOINT AND RELATIVE
    HUMIDITY OBSERVATIONS.

INZ001>003-010>013-019-020-161600-
NORTHWEST INDIANA

CITY           SKY/WX    TMP DP  RH WIND       PRES   REMARKS
GARY /AIRPORT/ MOSUNNY   39  23  52 S14       30.34S
LA PORTE +     SUNNY     38  20  48 S13       30.35F
MONTICELLO +   SUNNY     38  22  51 S13       30.36S
VALPARAISO     SUNNY     39  21  48 S13       30.35S

$$

LMZ046-743>745-161600-
SOUTHERN LAKE MICHIGAN

STATION/POSITION TIME  TEMP WIND        PRES
                       AIR  DIR/SP/G
                 (UTC) (F)  (DEG/KT/KT) (MB)
MICHIGAN CITY    1400   35  130/ 14/ 19   N/A

$$

INZ004-005-014>016-021>024-161600-
NORTH CENTRAL INDIANA

CITY           SKY/WX    TMP DP  RH WIND       PRES   REMARKS
ELKHART        SUNNY     37  16  41 S12G18    30.38F
GOSHEN         SUNNY     39  17  41 SE13      30.38F
SOUTH BEND     SUNNY     40  18  41 S14G20    30.36F

$$

INZ006>009-017-018-025>027-161600-
NORTHEAST INDIANA

CITY           SKY/WX    TMP DP  RH WIND       PRES   REMARKS
ANGOLA *+      SUNNY     34  16  47 S10       30.40S WCI  26
FORT WAYNE     SUNNY     38  17  42 SE13      30.42R

$$

INZ028-029-035-036-043>045-051>053-161600-
WEST CENTRAL INDIANA

CITY           SKY/WX    TMP DP  RH WIND       PRES   REMARKS
GREENCASTLE +  SUNNY     39  23  52 SE10      30.36S
LAFAYETTE      SUNNY     39  21  48 S13G20    30.36S
TERRE HAUTE    SUNNY     42  24  49 SE12      30.36S

$$

INZ030>032-037>040-046>048-054>057-064-065-161600-
CENTRAL INDIANA

CITY           SKY/WX    TMP DP  RH WIND       PRES   REMARKS
INDIANAPOLIS   MOSUNNY   37  20  50 SE13      30.37S
-EAGLE CREEK   SUNNY     38  18  44 S10       30.37S
KOKOMO *+      SUNNY     37  21  52 SE14      30.38S
MT COMFORT *+  SUNNY     39  23  52 SE12      30.39R
SHELBYVILLE    SUNNY     40  20  44 SE12      30.38S

$$

INZ033-034-041-042-049-050-058-059-161600-
EAST CENTRAL INDIANA

CITY           SKY/WX    TMP DP  RH WIND       PRES   REMARKS
MUNCIE         SUNNY     37  17  44 SE10      30.39S

$$

INZ060-061-067>069-081>083-085>088-161600-
SOUTHWEST INDIANA

CITY           SKY/WX    TMP DP  RH WIND       PRES   REMARKS
EVANSVILLE     MOSUNNY   42  23  46 E9        30.36S
HUNTINGBURG *+ SUNNY     41  23  48 S12       30.37S

$$

INZ062-063-066-070>080-084-089>092-161600-
SOUTH CENTRAL AND SOUTHEAST INDIANA

CITY           SKY/WX    TMP DP  RH WIND       PRES   REMARKS
BLOOMINGTON    SUNNY     40  21  46 SE12      30.36R
SEYMOUR +      SUNNY     37   5  25 SE12      30.39S

$$




USA.gov is the U.S. government's official web portal to all federal, state and local government web resources and services.